Weather History for Rutland, VT

Change the Weather History Date:

Saturday, October 27, 2012

  Actual Average Record
Temperature  
Mean Temperature 58 °F -  
Max Temperature 63 °F - 78 °F (1963)
Min Temperature 52 °F - 21 °F (1950)
Degree Days  
Heating Degree Days 7    
Month to date heating degree days 366  
Since 1 July heating degree days 597  
Cooling Degree Days 0    
Month to date cooling degree days 0  
Year to date cooling degree days 411  
Growing Degree Days 6 (Base 50)    
Moisture  
Dew Point 51 °F    
Average Humidity 82    
Maximum Humidity 96    
Minimum Humidity 67    
Precipitation  
Precipitation 0.00 in - 3.21 in (2003)
Month to date precipitation 2.29  
Year to date precipitation 20.52  
Sea Level Pressure  
Sea Level Pressure 30.02 in    
Wind  
Wind Speed 7 mph (SE)    
Max Wind Speed 14 mph    
Max Gust Speed 20 mph    
Visibility 10 miles    
Events      
T = Trace of Precipitation, MM = Missing Value Source: NWS Daily Summary

Daily Weather History Graph

Daily Weather History Graph

Search for Another Location

Airport:

Trip Planner

Search our weather history database for the weather conditions in past years. The results will help you decide how hot, cold, wet, or windy it might be!

Date:

Astronomy

Oct. 27, 2012 Rise Set
Actual Time 7:21 AM EDT 5:49 PM EDT
Civil Twilight 6:51 AM EDT 6:18 PM EDT
Nautical Twilight 6:18 AM EDT 6:52 PM EDT
Astronomical Twilight 5:45 AM EDT 7:25 PM EDT
Moon 4:35 PM EDT (10/27) 5:11 AM EDT (10/27)
Length of Visible Light 11h 26m
Length of Day
10h 27m
Waxing Gibbous, 96% of the Moon is Illuminated
Oct 27
Waxing Gibbous
Oct 29
Full
Nov 6
Last Quarter
Nov 13
New
Nov 20
First Quarter

Hourly Weather History & Observations

Time (EDT) Temp. Dew Point Humidity Pressure Visibility Wind Dir Wind Speed Gust Speed Precip Events Conditions
10:15 AM 57.2 °F 51.8 °F 82% 30.07 in 10.0 mi Calm Calm - N/A   Clear
10:35 AM 59.0 °F 51.8 °F 77% 30.06 in 10.0 mi Calm Calm - N/A   Clear
10:55 AM 60.8 °F 51.8 °F 72% 30.05 in 10.0 mi Calm Calm - N/A   Partly Cloudy
11:15 AM 60.8 °F 51.8 °F 72% 30.05 in 10.0 mi South 3.5 mph - N/A   Mostly Cloudy
11:35 AM 62.6 °F 53.6 °F 72% 30.04 in 10.0 mi ESE 8.1 mph - N/A   Overcast
11:55 AM 62.6 °F 51.8 °F 68% 30.05 in 10.0 mi SE 11.5 mph - N/A   Overcast
12:15 PM 62.6 °F 51.8 °F 68% 30.03 in 10.0 mi ESE 9.2 mph - N/A   Mostly Cloudy
12:35 PM 60.8 °F 51.8 °F 72% 30.03 in 10.0 mi SSE 11.5 mph - N/A   Mostly Cloudy
12:55 PM 62.6 °F 51.8 °F 68% 30.03 in 10.0 mi ESE 10.4 mph - N/A   Overcast
1:15 PM 60.8 °F 51.8 °F 72% 30.02 in 10.0 mi SE 11.5 mph 17.3 mph N/A   Overcast
1:35 PM 60.8 °F 51.8 °F 72% 30.02 in 10.0 mi SE 11.5 mph - N/A   Overcast
1:55 PM 60.8 °F 51.8 °F 72% 30.01 in 10.0 mi ESE 12.7 mph - N/A   Mostly Cloudy
2:15 PM 60.8 °F 51.8 °F 72% 30.00 in 10.0 mi SE 9.2 mph - N/A   Overcast
2:35 PM 60.8 °F 51.8 °F 72% 29.99 in 10.0 mi SSE 9.2 mph - N/A   Mostly Cloudy
2:55 PM 60.8 °F 51.8 °F 72% 30.00 in 10.0 mi SE 10.4 mph - N/A   Mostly Cloudy
3:15 PM 60.8 °F 51.8 °F 72% 30.00 in 10.0 mi SE 15.0 mph - N/A   Overcast
3:35 PM 60.8 °F 51.8 °F 72% 30.00 in 10.0 mi SE 15.0 mph - N/A   Overcast
3:55 PM 60.8 °F 51.8 °F 72% 30.00 in 10.0 mi SE 13.8 mph 19.6 mph N/A   Mostly Cloudy
4:15 PM 60.8 °F 51.8 °F 72% 30.00 in 10.0 mi SE 12.7 mph - N/A   Mostly Cloudy
4:35 PM 60.8 °F 51.8 °F 72% 30.00 in 10.0 mi ESE 12.7 mph - N/A   Overcast
4:55 PM 59.0 °F 51.8 °F 77% 30.00 in 10.0 mi SE 13.8 mph - N/A   Scattered Clouds
5:15 PM 59.0 °F 51.8 °F 77% 30.01 in 10.0 mi SE 15.0 mph - N/A   Mostly Cloudy
5:35 PM 59.0 °F 51.8 °F 77% 30.01 in 10.0 mi SE 10.4 mph - N/A   Overcast
5:55 PM 59.0 °F 51.8 °F 77% 30.01 in 10.0 mi SSE 11.5 mph - N/A   Overcast
6:15 PM 59.0 °F 51.8 °F 77% 30.01 in 10.0 mi SE 11.5 mph - N/A   Overcast
6:35 PM 57.2 °F 51.8 °F 82% 30.01 in 10.0 mi SE 11.5 mph - N/A   Mostly Cloudy
6:55 PM 57.2 °F 51.8 °F 82% 30.02 in 10.0 mi SE 10.4 mph - N/A   Partly Cloudy
7:15 PM 57.2 °F 51.8 °F 82% 30.02 in 10.0 mi SE 9.2 mph - N/A   Clear
7:35 PM 57.2 °F 51.8 °F 82% 30.02 in 10.0 mi SSE 6.9 mph - N/A   Clear
7:55 PM 57.2 °F 51.8 °F 82% 30.02 in 10.0 mi SSE 6.9 mph - N/A   Clear
8:15 PM 55.4 °F 51.8 °F 88% 30.03 in 10.0 mi SE 5.8 mph - N/A   Clear
8:35 PM 55.4 °F 51.8 °F 88% 30.03 in 10.0 mi ESE 3.5 mph - N/A   Clear
8:55 PM 53.6 °F 51.8 °F 94% 30.03 in 10.0 mi Calm Calm - N/A   Clear
9:15 PM 53.6 °F 50.0 °F 88% 30.02 in 10.0 mi ESE 5.8 mph - N/A   Clear
9:35 PM 53.6 °F 50.0 °F 88% 30.02 in 10.0 mi SE 4.6 mph - N/A   Clear
9:55 PM 51.8 °F 50.0 °F 94% 30.02 in 10.0 mi SE 4.6 mph - N/A   Partly Cloudy
10:15 PM 51.8 °F 50.0 °F 94% 30.02 in 10.0 mi ESE 5.8 mph - N/A   Partly Cloudy
10:35 PM 51.8 °F 48.2 °F 88% 30.02 in 10.0 mi Calm Calm - N/A   Clear
10:55 PM 51.8 °F 48.2 °F 88% 30.01 in 10.0 mi Calm Calm - N/A   Clear
11:15 PM 51.8 °F 50.0 °F 94% 30.01 in 10.0 mi South 4.6 mph - N/A   Clear
11:35 PM 53.6 °F 50.0 °F 88% 30.01 in 10.0 mi South 6.9 mph - N/A   Clear
11:55 PM 55.4 °F 51.8 °F 88% 30.01 in 10.0 mi South 5.8 mph - N/A   Clear